This is the latest recevied weather packets stored in our database for station/object SQ8SW-4. If no packets are shown the sender has not sent any weather packets the latest 10 day(s).
| Time | Temp. | Humidity | Pressure | Rain* | Wind** | Luminosity | Snow |
|---|---|---|---|---|---|---|---|
| 1777420813 | 1.67° C | 72% | 995 hPa | - | - | - | - |
| 1777419911 | 1.67° C | 70% | 995 hPa | - | - | - | - |
| 1777419008 | 2.22° C | 70% | 995 hPa | - | - | - | - |
| 1777418106 | 2.22° C | 69% | 995 hPa | - | - | - | - |
| 1777417204 | 2.78° C | 67% | 995 hPa | - | - | - | - |
| 1777416301 | 2.78° C | 64% | 995 hPa | - | - | - | - |
| 1777415399 | 2.78° C | 65% | 995 hPa | - | - | - | - |
| 1777414497 | 3.33° C | 65% | 995 hPa | - | - | - | - |
| 1777413595 | 3.33° C | 66% | 995 hPa | - | - | - | - |
| 1777412693 | 3.89° C | 63% | 995 hPa | - | - | - | - |
| 1777411790 | 4.44° C | 64% | 995 hPa | - | - | - | - |
| 1777410888 | 4.44° C | 62% | 995 hPa | - | - | - | - |
| 1777409986 | 5° C | 59% | 995 hPa | - | - | - | - |
| 1777409084 | 5° C | 59% | 995 hPa | - | - | - | - |
| 1777408181 | 5° C | 57% | 995 hPa | - | - | - | - |
| 1777407279 | 5.56° C | 56% | 995 hPa | - | - | - | - |
| 1777406377 | 6.11° C | 54% | 995 hPa | - | - | - | - |
| 1777405475 | 6.11° C | 52% | 995 hPa | - | - | - | - |
| 1777404572 | 6.67° C | 48% | 994 hPa | - | - | - | - |
| 1777403670 | 7.78° C | 46% | 994 hPa | - | - | - | - |
| 1777402768 | 8.33° C | 45% | 994 hPa | - | - | - | - |
| 1777401866 | 8.89° C | 40% | 994 hPa | - | - | - | - |
| 1777400964 | 9.44° C | 35% | 994 hPa | - | - | - | - |
| 1777400061 | 10° C | 33% | 994 hPa | - | - | - | - |
| 1777399159 | 10.56° C | 32% | 994 hPa | - | - | - | - |
* Rain since midnight (hover to see other rain measurements)
** Current wind speed in m/s (hover to see current wind gust speed)